Location: Arrien
(42.8963°N, 1.0429°E)
Time: 15:29:34
(UTC+00:00)

ZACube-1 - Visible Passes

Search period start: 11 April 2026 00:00
Search period end: 21 April 2026 00:00
Orbit: 534 x 596 km, 97.8° (Epoch: 11 April)

Date Brightness Start Highest point End Pass type
(mag) Time Alt. Az. Time Alt. Az. Time Alt. Az.
11 Apr ? 02:19:29 10° NE 02:22:15 19° E 02:22:21 19° E visible
11 Apr ? 03:53:52 10° N 03:57:20 32° WNW 03:58:23 27° WSW visible
12 Apr ? 02:19:43 10° NE 02:22:30 19° E 02:22:45 19° E visible
12 Apr ? 03:54:08 10° N 03:57:35 32° WNW 03:58:47 26° WSW visible
13 Apr ? 02:19:58 10° NE 02:22:46 19° E 02:23:08 19° ESE visible
13 Apr ? 03:54:23 10° N 03:57:50 32° WNW 03:59:09 25° WSW visible
14 Apr ? 02:20:11 10° NE 02:23:00 19° E 02:23:31 18° ESE visible
14 Apr ? 03:54:37 10° N 03:58:04 31° WNW 03:59:32 24° WSW visible
15 Apr ? 02:20:25 10° NE 02:23:14 19° E 02:23:52 18° ESE visible
15 Apr ? 03:54:51 10° N 03:58:19 31° WNW 03:59:54 23° WSW visible
16 Apr ? 02:20:37 10° NE 02:23:28 19° E 02:24:14 18° ESE visible
16 Apr ? 03:55:05 10° N 03:58:32 31° WNW 04:00:15 22° WSW visible
17 Apr ? 02:20:50 10° NE 02:23:41 19° E 02:24:35 18° ESE visible
17 Apr ? 03:55:17 10° N 03:58:45 31° WNW 04:00:36 21° WSW visible
18 Apr ? 02:21:02 10° NE 02:23:54 19° E 02:24:56 18° ESE visible
18 Apr ? 03:55:30 10° N 03:58:58 31° WNW 04:00:56 20° WSW visible
19 Apr ? 02:21:13 10° NE 02:24:06 19° E 02:25:15 17° ESE visible
19 Apr ? 03:55:41 10° N 03:59:09 31° WNW 04:01:16 19° WSW visible
20 Apr ? 02:21:24 10° NE 02:24:18 20° E 02:25:35 17° ESE visible
20 Apr ? 03:55:53 10° N 03:59:21 31° WNW 04:01:36 18° WSW visible
